Date String (YYYY-MM-DD hh:mm:ss) UTC,Instrument flags,Ambient pressure (hPa),Sample flow (lpm),Bypass flow (lpm),Sample temperature (°C),Ambient temperature (°C),ASC tube jacket temperature (°C),LED temperature (°C),Box temperature (°C),Sample RH (%),Span deviation,Mass concentration (μg/m³),Mass concentration (μg/m³),Mass concentration (μg/m³)
DateTimeUTC,F1_M11,P_M11,Q1_M11,Q2_M11,T1_M11,T2_M11,T3_M11,T4_M11,T5_M11,U1_M11,ZSPAN_M11,X0_M11,X2_M11,X1_M11
2023-02-23 11:00:00,,0818.4,5.00,0.00,22.6,21.6,00.0,31.2,24.1,02.7,0000.0,0007.00,0003.21,0002.76
2023-02-23 11:01:00,,0818.6,4.99,0.00,22.5,21.1,00.0,31.2,24.0,02.7,0000.0,0006.51,0003.21,0002.74
2023-02-23 11:02:00,,0818.7,5.00,0.00,22.4,20.7,00.0,31.2,23.8,02.7,0000.0,0005.71,0003.23,0002.74
2023-02-23 11:03:00,,0818.7,5.01,0.00,22.3,20.7,00.0,31.2,23.8,02.7,0000.0,0005.54,0003.19,0002.71
2023-02-23 11:04:00,,0818.8,4.97,0.00,22.4,21.6,00.0,31.2,24.0,02.7,0000.0,0005.61,0003.20,0002.70
2023-02-23 11:05:00,,0818.8,4.96,0.00,22.5,22.5,00.0,31.2,24.3,02.7,0000.0,0005.63,0003.19,0002.69
2023-02-23 11:06:00,,0818.8,4.99,0.00,22.6,23.1,00.0,31.2,24.5,02.7,0000.0,0005.40,0003.16,0002.68
2023-02-23 11:07:00,,0818.9,5.00,0.00,22.7,23.1,00.0,31.2,24.5,02.7,0000.0,0004.64,0003.13,0002.67
2023-02-23 11:08:00,,0818.8,5.01,0.00,22.7,22.4,00.0,31.2,24.3,02.7,0000.0,0004.78,0003.15,0002.67
2023-02-23 11:09:00,,0818.8,5.00,0.00,22.6,21.7,00.0,31.2,24.1,02.7,0000.0,0005.00,0003.11,0002.65
2023-02-23 11:10:00,,0818.9,5.01,0.00,22.5,21.2,00.0,31.2,23.9,02.7,0000.0,0005.61,0003.10,0002.64
2023-02-23 11:11:00,,0818.9,4.99,0.00,22.4,20.7,00.0,31.2,23.7,02.7,0000.0,0005.58,0003.09,0002.64
2023-02-23 11:12:00,,0819.0,4.99,0.00,22.3,20.4,00.0,31.2,23.6,02.7,0000.0,0005.53,0003.07,0002.63
2023-02-23 11:13:00,,0818.9,5.02,0.00,22.3,20.9,00.0,31.2,23.8,02.7,0000.0,0005.44,0003.02,0002.61
2023-02-23 11:14:00,,0818.9,5.01,0.00,22.4,21.9,00.0,31.2,24.1,02.7,0000.0,0005.47,0003.05,0002.61
2023-02-23 11:15:00,,0818.9,5.03,0.00,22.5,22.8,00.0,31.2,24.3,02.7,0000.0,0005.86,0003.04,0002.60
2023-02-23 11:16:00,,0818.9,5.02,0.00,22.6,23.3,00.0,31.2,24.5,02.7,0000.0,0005.80,0003.02,0002.59
2023-02-23 11:17:00,,0818.9,5.00,0.00,22.7,22.9,00.0,31.2,24.4,02.7,0000.0,0005.89,0003.05,0002.58
2023-02-23 11:18:00,,0819.0,5.00,0.00,22.6,22.1,00.0,31.2,24.2,02.7,0000.0,0005.96,0003.06,0002.58
2023-02-23 11:19:00,,0818.9,4.98,0.00,22.6,21.5,00.0,31.2,24.1,02.7,0000.0,0006.11,0003.08,0002.56
2023-02-23 11:20:00,,0818.9,4.99,0.00,22.5,21.0,00.0,31.2,23.8,02.7,0000.0,0005.75,0003.08,0002.57
2023-02-23 11:21:00,,0818.9,5.00,0.00,22.4,20.6,00.0,31.2,23.7,02.7,0000.0,0004.90,0003.07,0002.57
2023-02-23 11:22:00,,0818.9,5.02,0.00,22.3,20.9,00.0,31.2,23.8,02.7,0000.0,0004.85,0003.04,0002.55
2023-02-23 11:23:00,,0818.9,4.99,0.00,22.4,21.9,00.0,31.2,24.1,02.7,0000.0,0004.82,0003.03,0002.54
2023-02-23 11:24:00,,0819.0,4.99,0.00,22.5,22.8,00.0,31.2,24.3,02.7,0000.0,0005.00,0003.04,0002.54
2023-02-23 11:25:00,,0819.0,5.01,0.00,22.6,23.0,00.0,31.2,24.4,02.7,0000.0,0005.08,0003.02,0002.53
2023-02-23 11:26:00,,0819.0,4.99,0.00,22.6,22.3,00.0,31.2,24.3,02.7,0000.0,0004.69,0002.99,0002.52
2023-02-23 11:27:00,,0819.0,5.00,0.00,22.6,21.7,00.0,31.2,24.1,02.7,0000.0,0004.61,0002.97,0002.53
2023-02-23 11:28:00,,0819.1,5.01,0.00,22.5,21.2,00.0,31.2,23.9,02.7,0000.0,0004.69,0003.00,0002.54
2023-02-23 11:29:00,,0819.0,5.00,0.00,22.4,20.8,00.0,31.2,23.9,02.7,0000.0,0004.60,0002.98,0002.53
2023-02-23 11:30:00,,0819.1,5.01,0.00,22.4,20.6,00.0,31.2,23.8,02.7,0000.0,0004.31,0002.94,0002.53
2023-02-23 11:31:00,,0819.0,5.01,0.00,22.4,21.4,00.0,31.2,24.0,02.7,0000.0,0004.36,0002.95,0002.53
2023-02-23 11:32:00,,0819.0,5.00,0.00,22.5,22.3,00.0,31.2,24.2,02.7,0000.0,0004.59,0003.02,0002.53
2023-02-23 11:33:00,,0819.1,5.02,0.00,22.6,23.1,00.0,31.2,24.4,02.7,0000.0,0004.74,0003.06,0002.53
2023-02-23 11:34:00,,0819.2,5.01,0.00,22.7,23.3,00.0,31.2,24.5,02.7,0000.0,0004.87,0003.10,0002.55
2023-02-23 11:35:00,,0819.1,4.98,0.00,22.7,22.6,00.0,31.2,24.3,02.7,0000.0,0004.83,0003.12,0002.56
2023-02-23 11:36:00,,0819.0,4.99,0.00,22.6,21.9,00.0,31.3,24.2,02.7,0000.0,0004.86,0003.14,0002.58
2023-02-23 11:37:00,,0819.1,4.99,0.00,22.5,21.3,00.0,31.2,24.0,02.8,0000.0,0004.83,0003.16,0002.60
2023-02-23 11:38:00,,0819.1,5.00,0.00,22.4,20.8,00.0,31.2,23.9,02.8,0000.0,0004.82,0003.16,0002.60
2023-02-23 11:39:00,,0819.1,5.00,0.00,22.4,20.5,00.0,31.2,23.7,02.8,0000.0,0004.73,0003.15,0002.61
2023-02-23 11:40:00,,0819.1,5.01,0.00,22.3,20.7,00.0,31.2,23.8,02.8,0000.0,0004.75,0003.16,0002.61
2023-02-23 11:41:00,,0819.1,5.02,0.00,22.4,21.8,00.0,31.2,24.0,02.8,0000.0,0004.80,0003.16,0002.63
2023-02-23 11:42:00,,0819.1,5.02,0.00,22.5,22.8,00.0,31.2,24.3,02.8,0000.0,0004.87,0003.16,0002.64
2023-02-23 11:43:00,,0819.1,4.99,0.00,22.6,23.4,00.0,31.2,24.5,02.7,0000.0,0005.09,0003.14,0002.64
2023-02-23 11:44:00,,0819.1,4.95,0.00,22.7,23.1,00.0,31.2,24.5,02.7,0000.0,0004.95,0003.12,0002.65
2023-02-23 11:45:00,,0819.2,4.99,0.00,22.6,22.4,00.0,31.2,24.3,02.7,0000.0,0004.84,0003.11,0002.64
2023-02-23 11:46:00,,0819.2,5.00,0.00,22.6,21.8,00.0,31.2,24.1,02.7,0000.0,0004.83,0003.07,0002.62
2023-02-23 11:47:00,,0819.1,5.01,0.00,22.5,21.3,00.0,31.2,24.0,02.7,0000.0,0005.09,0003.01,0002.61
2023-02-23 11:48:00,,0819.1,5.00,0.00,22.4,20.8,00.0,31.2,23.9,02.7,0000.0,0005.02,0002.97,0002.59
2023-02-23 11:49:00,,0819.2,5.00,0.00,22.4,20.9,00.0,31.2,23.9,02.8,0000.0,0005.10,0002.99,0002.60
2023-02-23 11:50:00,,0819.3,4.99,0.00,22.5,21.8,00.0,31.2,24.1,02.8,0000.0,0005.19,0003.01,0002.61
2023-02-23 11:51:00,,0819.3,5.06,0.00,22.6,22.7,00.0,31.2,24.3,02.7,0000.0,0005.24,0003.00,0002.61
2023-02-23 11:52:00,,0819.3,5.00,0.00,22.7,23.4,00.0,31.2,24.5,02.7,0000.0,0005.20,0002.99,0002.60
2023-02-23 11:53:00,,0819.2,5.02,0.00,22.7,23.1,00.0,31.3,24.5,02.7,0000.0,0005.16,0003.01,0002.61
2023-02-23 11:54:00,,0819.2,5.00,0.00,22.7,22.4,00.0,31.3,24.3,02.7,0000.0,0004.71,0002.98,0002.62
2023-02-23 11:55:00,,0819.1,5.01,0.00,22.6,21.7,00.0,31.3,24.2,02.7,0000.0,0004.79,0002.99,0002.62
2023-02-23 11:56:00,,0819.1,5.01,0.00,22.5,21.2,00.0,31.3,24.0,02.7,0000.0,0004.87,0003.03,0002.62
2023-02-23 11:57:00,,0819.2,5.00,0.00,22.5,20.7,00.0,31.3,23.9,02.7,0000.0,0005.15,0003.10,0002.65
2023-02-23 11:58:00,,0819.3,4.99,0.00,22.4,20.4,00.0,31.2,23.8,02.7,0000.0,0004.73,0003.13,0002.67
2023-02-23 11:59:00,,0819.3,5.02,0.00,22.4,21.1,00.0,31.2,23.9,02.8,0000.0,0004.70,0003.12,0002.67
